TimeAST,TemperatureF,Dew PointF,Humidity,Sea Level PressureIn,VisibilityMPH,Wind Direction,Wind SpeedMPH,Gust SpeedMPH,PrecipitationIn,Events,Conditions,WindDirDegrees,DateUTC
12:56 AM,82.0,72.0,71,29.97,10.0,ENE,8.1,-,N/A,,Scattered Clouds,60,2012-07-12 04:56:00
1:56 AM,82.0,71.1,69,29.95,10.0,ENE,10.4,-,N/A,,Scattered Clouds,60,2012-07-12 05:56:00
2:56 AM,81.0,72.0,74,29.93,10.0,East,9.2,-,N/A,,Scattered Clouds,90,2012-07-12 06:56:00
3:56 AM,79.0,73.0,82,29.93,10.0,SE,3.5,-,0.02,,Scattered Clouds,140,2012-07-12 07:56:00
4:56 AM,79.0,73.0,82,29.93,10.0,East,3.5,-,0.01,,Scattered Clouds,100,2012-07-12 08:56:00
5:56 AM,79.0,73.0,82,29.93,10.0,Calm,Calm,-,N/A,,Scattered Clouds,0,2012-07-12 09:56:00
6:56 AM,80.1,73.9,81,29.95,10.0,SE,4.6,-,0.00,Rain,Light Rain,140,2012-07-12 10:56:00
7:56 AM,80.1,73.9,81,29.96,10.0,Calm,Calm,-,0.02,Rain,Rain,0,2012-07-12 11:56:00
8:56 AM,84.0,75.0,74,29.96,10.0,ENE,13.8,18.4,0.02,,Scattered Clouds,60,2012-07-12 12:56:00
9:56 AM,84.9,73.0,67,29.96,10.0,ENE,13.8,-,N/A,,Scattered Clouds,70,2012-07-12 13:56:00
10:56 AM,87.1,71.1,59,29.97,10.0,ENE,15.0,-,N/A,,Scattered Clouds,60,2012-07-12 14:56:00
11:56 AM,87.1,73.0,63,29.96,10.0,ENE,15.0,-,N/A,,Scattered Clouds,60,2012-07-12 15:56:00
12:56 PM,87.1,72.0,61,29.95,10.0,NE,15.0,23.0,N/A,,Scattered Clouds,50,2012-07-12 16:56:00
1:56 PM,87.1,72.0,61,29.95,10.0,ENE,15.0,-,N/A,,Scattered Clouds,70,2012-07-12 17:56:00
2:56 PM,86.0,72.0,63,29.94,10.0,ENE,17.3,-,N/A,,Scattered Clouds,70,2012-07-12 18:56:00
3:56 PM,84.0,73.0,69,29.94,10.0,Variable,3.5,-,N/A,,Scattered Clouds,0,2012-07-12 19:56:00
4:56 PM,84.0,72.0,67,29.93,10.0,Calm,Calm,-,0.00,Rain,Light Rain,0,2012-07-12 20:56:00
5:56 PM,82.9,70.0,65,29.93,10.0,East,6.9,-,0.01,,Scattered Clouds,100,2012-07-12 21:56:00
6:56 PM,82.0,72.0,71,29.94,10.0,East,11.5,-,N/A,,Scattered Clouds,90,2012-07-12 22:56:00
7:56 PM,81.0,73.0,77,29.95,10.0,East,6.9,-,N/A,,Partly Cloudy,80,2012-07-12 23:56:00
8:56 PM,82.0,73.0,74,29.96,10.0,SE,3.5,-,N/A,,Scattered Clouds,130,2012-07-13 00:56:00
9:56 PM,82.0,73.0,74,29.99,10.0,SE,3.5,-,N/A,,Scattered Clouds,130,2012-07-13 01:56:00
10:56 PM,80.1,71.1,74,30.00,10.0,Calm,Calm,-,N/A,,Scattered Clouds,0,2012-07-13 02:56:00